sat.trackr.live / text

‹ back to catalog

YAM-9

NORAD 66694 · 2025-276AE

PAYLOAD ACTIVE UNKNOWN

§ Identity

Operator
Country
US
Launch date
2025-11-28
Launch site
AFWTR
Launch vehicle
Mass (kg)
RCS (m²)

External: N2YO · Heavens-Above · Gunter

§ Orbital elements

Epoch: 2026-05-25T03:22:30.495936Z

Period
95.07 min
Inclination
97.4219°
Eccentricity
0.0009648
Mean motion
15.14689931 rev/d
Perigee alt
515.3 km
Apogee alt
528.6 km
Semi-major
6,900.1 km
B*
2.8044e-4
RAAN
218.2383°
Arg perigee
41.6926°
Mean anomaly
318.5040°
Rev number
2,686

§ Raw data

YAM-91 66694U 25276AE  26145.14063074  .00005131  00000+0  28044-3 0  99962 66694  97.4219 218.2383 0009648  41.6926 318.5040 15.14689931 26867

JSON: /api/v1/satellites/66694 · /tle

For live sub-satellite position, see the globe view (requires WebGL).

§ Visibility from observer

Set your observer location to see the next 7 days of passes ≥ 10°. The values pass through the URL so the page stays shareable.

No JS? Fill the form by hand. The geolocation button needs JavaScript.